TimeCDT,TemperatureF,Dew PointF,Humidity,Sea Level PressureIn,VisibilityMPH,Wind Direction,Wind SpeedMPH,Gust SpeedMPH,PrecipitationIn,Events,Conditions,WindDirDegrees,DateUTC
12:15 AM,35.6,33.3,91,30.21,10.0,NNE,9.2,-,N/A,,Clear,20,2012-10-28 05:15:00
12:35 AM,36.1,33.6,91,30.21,10.0,North,6.9,-,N/A,,Clear,10,2012-10-28 05:35:00
12:55 AM,36.0,33.6,91,30.21,10.0,NNE,8.1,-,N/A,,Clear,20,2012-10-28 05:55:00
1:15 AM,36.9,33.8,89,30.21,10.0,NNE,6.9,-,N/A,,Clear,30,2012-10-28 06:15:00
1:35 AM,36.9,33.6,88,30.20,10.0,NNE,9.2,-,N/A,,Clear,20,2012-10-28 06:35:00
1:55 AM,36.5,33.3,88,30.21,10.0,NNE,8.1,-,N/A,,Clear,20,2012-10-28 06:55:00
2:15 AM,36.0,32.7,88,30.21,10.0,NNE,8.1,-,N/A,,Clear,20,2012-10-28 07:15:00
2:35 AM,35.6,32.2,87,30.21,10.0,NNE,8.1,-,N/A,,Clear,20,2012-10-28 07:35:00
2:55 AM,34.3,32.0,91,30.21,10.0,NNE,6.9,-,N/A,,Clear,30,2012-10-28 07:55:00
3:15 AM,34.7,32.0,90,30.21,10.0,NE,6.9,-,N/A,,Clear,40,2012-10-28 08:15:00
3:35 AM,34.5,32.0,90,30.21,10.0,NNE,6.9,-,N/A,,Clear,30,2012-10-28 08:35:00
4:15 AM,32.4,30.7,94,30.22,10.0,NNE,5.8,-,N/A,,Clear,20,2012-10-28 09:15:00
4:35 AM,32.0,30.6,94,30.22,10.0,NNE,6.9,-,N/A,,Clear,20,2012-10-28 09:35:00
4:55 AM,31.6,30.4,95,30.22,10.0,North,5.8,-,N/A,,Clear,10,2012-10-28 09:55:00
5:15 AM,31.5,30.2,95,30.23,10.0,NNE,6.9,-,N/A,,Clear,20,2012-10-28 10:15:00
5:35 AM,32.0,30.7,95,30.23,10.0,NNE,6.9,-,N/A,,Scattered Clouds,20,2012-10-28 10:35:00
5:55 AM,32.0,30.9,96,30.23,10.0,NNE,6.9,-,N/A,,Mostly Cloudy,20,2012-10-28 10:55:00
6:15 AM,32.2,31.5,97,30.23,10.0,NNE,6.9,-,N/A,,Mostly Cloudy,20,2012-10-28 11:15:00
6:35 AM,32.9,31.8,96,30.23,10.0,NNE,6.9,-,N/A,,Mostly Cloudy,30,2012-10-28 11:35:00
6:55 AM,33.8,32.0,93,30.23,10.0,NE,6.9,-,N/A,,Mostly Cloudy,40,2012-10-28 11:55:00
7:15 AM,33.8,32.0,93,30.23,10.0,NE,9.2,-,N/A,,Mostly Cloudy,40,2012-10-28 12:15:00
7:55 AM,33.8,31.6,92,30.23,10.0,NNE,9.2,-,N/A,,Clear,20,2012-10-28 12:55:00
8:15 AM,34.2,32.0,92,30.24,10.0,NNE,9.2,-,N/A,,Clear,20,2012-10-28 13:15:00
8:35 AM,35.2,32.0,88,30.24,10.0,NNE,11.5,-,N/A,,Clear,20,2012-10-28 13:35:00
8:55 AM,37.2,32.4,83,30.24,10.0,NNE,11.5,-,N/A,,Clear,20,2012-10-28 13:55:00
9:15 AM,39.0,31.6,75,30.24,10.0,NE,12.7,17.3,N/A,,Clear,40,2012-10-28 14:15:00
9:35 AM,39.7,30.6,70,30.24,10.0,NNE,13.8,18.4,N/A,,Clear,30,2012-10-28 14:35:00
9:55 AM,40.6,30.4,67,30.23,10.0,NNE,12.7,17.3,N/A,,Clear,30,2012-10-28 14:55:00
10:15 AM,41.9,29.7,62,30.23,10.0,NNE,13.8,-,N/A,,Clear,20,2012-10-28 15:15:00
10:35 AM,43.3,29.5,58,30.23,10.0,NNE,12.7,17.3,N/A,,Clear,20,2012-10-28 15:35:00
10:55 AM,43.7,29.3,57,30.23,10.0,NNE,15.0,-,N/A,,Clear,20,2012-10-28 15:55:00
11:15 AM,43.2,28.0,55,30.23,10.0,NNE,12.7,-,N/A,,Scattered Clouds,20,2012-10-28 16:15:00
11:35 AM,44.4,27.7,52,30.23,10.0,NNE,12.7,20.7,N/A,,Scattered Clouds,20,2012-10-28 16:35:00
11:55 AM,45.1,26.6,48,30.22,10.0,NNE,16.1,21.9,N/A,,Clear,30,2012-10-28 16:55:00
12:15 PM,46.2,26.4,46,30.21,10.0,NNE,11.5,20.7,N/A,,Clear,20,2012-10-28 17:15:00
12:35 PM,46.6,26.1,45,30.21,10.0,NNE,13.8,20.7,N/A,,Scattered Clouds,30,2012-10-28 17:35:00
12:55 PM,46.4,26.1,45,30.20,10.0,NNE,12.7,-,N/A,,Scattered Clouds,20,2012-10-28 17:55:00
1:15 PM,46.8,26.2,45,30.19,10.0,NNE,12.7,19.6,N/A,,Clear,20,2012-10-28 18:15:00
1:35 PM,47.1,26.4,45,30.18,10.0,North,17.3,20.7,N/A,,Scattered Clouds,10,2012-10-28 18:35:00
1:55 PM,48.0,27.1,44,30.18,10.0,North,15.0,20.7,N/A,,Scattered Clouds,10,2012-10-28 18:55:00
2:15 PM,47.7,27.1,45,30.17,10.0,NNE,13.8,19.6,N/A,,Clear,30,2012-10-28 19:15:00
2:35 PM,47.8,27.5,45,30.17,10.0,NNE,16.1,20.7,N/A,,Scattered Clouds,30,2012-10-28 19:35:00
2:55 PM,47.5,28.0,47,30.17,10.0,North,13.8,-,N/A,,Scattered Clouds,350,2012-10-28 19:55:00
3:15 PM,48.4,28.2,46,30.17,10.0,NNE,16.1,20.7,N/A,,Mostly Cloudy,20,2012-10-28 20:15:00
3:35 PM,47.5,28.0,47,30.18,10.0,North,15.0,23.0,N/A,,Overcast,10,2012-10-28 20:35:00
3:55 PM,46.4,28.8,50,30.18,10.0,North,15.0,18.4,N/A,,Overcast,10,2012-10-28 20:55:00
4:15 PM,45.7,30.0,54,30.18,10.0,North,16.1,-,N/A,,Overcast,360,2012-10-28 21:15:00
4:35 PM,45.5,30.9,57,30.18,10.0,North,11.5,-,N/A,,Overcast,360,2012-10-28 21:35:00
4:55 PM,45.1,31.1,58,30.18,10.0,North,12.7,-,N/A,,Overcast,360,2012-10-28 21:55:00
5:15 PM,44.8,31.1,59,30.18,10.0,North,12.7,-,N/A,,Mostly Cloudy,360,2012-10-28 22:15:00
5:35 PM,44.6,31.5,60,30.18,10.0,North,11.5,-,N/A,,Overcast,360,2012-10-28 22:35:00
5:55 PM,44.4,31.6,61,30.19,10.0,North,9.2,-,N/A,,Mostly Cloudy,360,2012-10-28 22:55:00
6:15 PM,43.9,31.8,63,30.19,10.0,North,11.5,-,N/A,,Overcast,360,2012-10-28 23:15:00
6:35 PM,43.9,31.8,63,30.19,10.0,North,11.5,-,N/A,,Overcast,360,2012-10-28 23:35:00
6:55 PM,43.7,32.0,63,30.19,10.0,North,9.2,-,N/A,,Overcast,350,2012-10-28 23:55:00
7:15 PM,43.5,32.0,64,30.20,10.0,North,9.2,-,N/A,,Overcast,350,2012-10-29 00:15:00
7:35 PM,43.2,32.0,65,30.20,10.0,North,8.1,-,N/A,,Overcast,350,2012-10-29 00:35:00
8:15 PM,41.4,32.0,69,30.19,10.0,North,6.9,-,N/A,,Overcast,350,2012-10-29 01:15:00
8:35 PM,41.0,32.0,70,30.19,10.0,North,5.8,-,N/A,,Mostly Cloudy,360,2012-10-29 01:35:00
9:15 PM,39.9,29.7,67,30.19,10.0,NNE,8.1,-,N/A,,Scattered Clouds,20,2012-10-29 02:15:00
9:35 PM,37.0,28.0,70,30.19,10.0,North,9.2,-,N/A,,Clear,10,2012-10-29 02:35:00
9:55 PM,36.9,27.3,68,30.19,10.0,NNE,9.2,-,N/A,,Clear,20,2012-10-29 02:55:00
10:15 PM,37.0,26.4,65,30.19,10.0,North,9.2,-,N/A,,Clear,10,2012-10-29 03:15:00
10:35 PM,36.3,25.9,66,30.19,10.0,North,8.1,-,N/A,,Clear,10,2012-10-29 03:35:00
11:15 PM,36.3,25.2,64,30.18,10.0,NNE,9.2,-,N/A,,Clear,20,2012-10-29 04:15:00
11:35 PM,37.4,25.3,62,30.19,10.0,NNE,9.2,-,N/A,,Clear,20,2012-10-29 04:35:00
11:55 PM,37.8,25.5,61,30.19,10.0,NNE,9.2,-,N/A,,Clear,20,2012-10-29 04:55:00